Time,TemperatureF,DewpointF,PressureIn,WindDirection,WindDirectionDegrees,WindSpeedMPH,WindSpeedGustMPH,Humidity,HourlyPrecipIn,Conditions,Clouds,dailyrainin,SoftwareType,DateUTC
2016-02-14 00:01:00,-10.1,-22.2,30.09,West,272,5.0,11.0,54,0.00,,,0.00,Wunderground v.1.15,2016-02-14 05:01:00,
2016-02-14 00:06:00,-10.0,-22.1,30.09,West,275,7.0,12.0,54,0.00,,,0.00,Wunderground v.1.15,2016-02-14 05:06:00,
2016-02-14 00:11:00,-9.9,-22.4,30.09,WNW,283,8.0,12.0,53,0.00,,,0.00,Wunderground v.1.15,2016-02-14 05:11:00,
2016-02-14 00:16:00,-9.9,-22.0,30.09,WNW,286,5.0,18.0,54,0.00,,,0.00,Wunderground v.1.15,2016-02-14 05:16:00,
2016-02-14 00:21:00,-10.0,-22.1,30.09,WNW,292,4.0,9.0,54,0.00,,,0.00,Wunderground v.1.15,2016-02-14 05:21:00,
2016-02-14 00:26:00,-10.3,-22.1,30.09,WNW,283,5.0,11.0,55,0.00,,,0.00,Wunderground v.1.15,2016-02-14 05:26:00,
2016-02-14 00:31:00,-10.3,-22.1,30.09,WNW,288,2.0,6.0,55,0.00,,,0.00,Wunderground v.1.15,2016-02-14 05:31:00,
2016-02-14 00:36:00,-10.5,-22.2,30.09,West,277,6.0,9.0,55,0.00,,,0.00,Wunderground v.1.15,2016-02-14 05:36:00,
2016-02-14 00:41:00,-10.7,-22.1,30.09,WSW,258,4.0,11.0,56,0.00,,,0.00,Wunderground v.1.15,2016-02-14 05:41:00,
2016-02-14 00:46:00,-10.6,-22.0,30.09,West,267,4.0,15.0,56,0.00,,,0.00,Wunderground v.1.15,2016-02-14 05:46:00,
2016-02-14 00:51:00,-10.6,-22.0,30.09,West,269,8.0,12.0,56,0.00,,,0.00,Wunderground v.1.15,2016-02-14 05:51:00,
2016-02-14 00:56:00,-10.7,-22.1,30.10,West,279,5.0,12.0,56,0.00,,,0.00,Wunderground v.1.15,2016-02-14 05:56:00,
2016-02-14 01:01:00,-10.7,-22.1,30.10,West,275,5.0,7.0,56,0.00,,,0.00,Wunderground v.1.15,2016-02-14 06:01:00,
2016-02-14 01:06:00,-10.8,-22.2,30.10,West,277,5.0,13.0,56,0.00,,,0.00,Wunderground v.1.15,2016-02-14 06:06:00,
2016-02-14 01:11:00,-10.7,-22.1,30.10,WSW,252,5.0,7.0,56,0.00,,,0.00,Wunderground v.1.15,2016-02-14 06:11:00,
2016-02-14 01:16:00,-10.6,-22.0,30.10,West,259,10.0,12.0,56,0.00,,,0.00,Wunderground v.1.15,2016-02-14 06:16:00,
2016-02-14 01:26:00,-10.6,-22.0,30.10,West,264,10.0,12.0,56,0.00,,,0.00,Wunderground v.1.15,2016-02-14 06:26:00,
2016-02-14 01:31:00,-10.5,-21.9,30.10,West,281,6.0,11.0,56,0.00,,,0.00,Wunderground v.1.15,2016-02-14 06:31:00,
2016-02-14 01:36:00,-10.5,-21.9,30.11,WNW,288,5.0,11.0,56,0.00,,,0.00,Wunderground v.1.15,2016-02-14 06:36:00,
2016-02-14 01:41:00,-10.5,-21.9,30.10,West,263,8.0,9.0,56,0.00,,,0.00,Wunderground v.1.15,2016-02-14 06:41:00,
2016-02-14 01:46:00,-10.4,-21.8,30.10,West,277,9.0,12.0,56,0.00,,,0.00,Wunderground v.1.15,2016-02-14 06:46:00,
2016-02-14 01:51:00,-10.2,-21.6,30.11,West,269,4.0,9.0,56,0.00,,,0.00,Wunderground v.1.15,2016-02-14 06:51:00,
2016-02-14 01:56:00,-10.0,-21.8,30.11,West,273,13.0,13.0,55,0.00,,,0.00,Wunderground v.1.15,2016-02-14 06:56:00,
2016-02-14 02:01:00,-10.0,-21.8,30.11,West,270,5.0,6.0,55,0.00,,,0.00,Wunderground v.1.15,2016-02-14 07:01:00,
2016-02-14 02:06:00,-10.1,-21.9,30.11,West,261,7.0,12.0,55,0.00,,,0.00,Wunderground v.1.15,2016-02-14 07:06:00,
2016-02-14 02:11:00,-10.1,-21.9,30.11,West,267,3.0,9.0,55,0.00,,,0.00,Wunderground v.1.15,2016-02-14 07:11:00,
2016-02-14 02:16:00,-9.9,-21.7,30.12,West,277,8.0,12.0,55,0.00,,,0.00,Wunderground v.1.15,2016-02-14 07:16:00,
2016-02-14 02:21:00,-9.7,-21.5,30.12,West,265,3.0,9.0,55,0.00,,,0.00,Wunderground v.1.15,2016-02-14 07:21:00,
2016-02-14 02:26:00,-9.5,-21.3,30.12,West,272,7.0,14.0,55,0.00,,,0.00,Wunderground v.1.15,2016-02-14 07:26:00,
2016-02-14 02:31:00,-9.5,-21.3,30.12,WNW,286,2.0,7.0,55,0.00,,,0.00,Wunderground v.1.15,2016-02-14 07:31:00,
2016-02-14 02:36:00,-9.4,-21.6,30.12,NW,311,2.0,12.0,54,0.00,,,0.00,Wunderground v.1.15,2016-02-14 07:36:00,
2016-02-14 02:46:00,-9.1,-21.3,30.12,West,273,2.0,14.0,54,0.00,,,0.00,Wunderground v.1.15,2016-02-14 07:46:00,
2016-02-14 02:51:00,-9.0,-20.8,30.12,West,269,4.0,8.0,55,0.00,,,0.00,Wunderground v.1.15,2016-02-14 07:51:00,
2016-02-14 02:56:00,-9.0,-20.8,30.12,West,267,5.0,11.0,55,0.00,,,0.00,Wunderground v.1.15,2016-02-14 07:56:00,
2016-02-14 03:01:00,-8.9,-20.7,30.12,West,268,7.0,12.0,55,0.00,,,0.00,Wunderground v.1.15,2016-02-14 08:01:00,
2016-02-14 03:06:00,-8.8,-20.3,30.12,WNW,282,8.0,12.0,56,0.00,,,0.00,Wunderground v.1.15,2016-02-14 08:06:00,
2016-02-14 03:11:00,-8.7,-20.2,30.13,WNW,286,4.0,9.0,56,0.00,,,0.00,Wunderground v.1.15,2016-02-14 08:11:00,
2016-02-14 03:16:00,-8.5,-19.7,30.13,WNW,303,7.0,12.0,57,0.00,,,0.00,Wunderground v.1.15,2016-02-14 08:16:00,
2016-02-14 03:21:00,-8.5,-19.0,30.13,West,274,5.0,8.0,59,0.00,,,0.00,Wunderground v.1.15,2016-02-14 08:21:00,
2016-02-14 03:31:00,-8.4,-18.3,30.13,WNW,285,2.0,7.0,61,0.00,,,0.00,Wunderground v.1.15,2016-02-14 08:31:00,
2016-02-14 03:36:00,-8.4,-18.3,30.13,WNW,295,6.0,11.0,61,0.00,,,0.00,Wunderground v.1.15,2016-02-14 08:36:00,
2016-02-14 03:41:00,-8.3,-18.2,30.14,WNW,292,5.0,8.0,61,0.00,,,0.00,Wunderground v.1.15,2016-02-14 08:41:00,
2016-02-14 03:46:00,-8.1,-18.0,30.14,WNW,282,6.0,16.0,61,0.00,,,0.00,Wunderground v.1.15,2016-02-14 08:46:00,
2016-02-14 03:51:00,-8.0,-17.9,30.14,West,280,6.0,8.0,61,0.00,,,0.00,Wunderground v.1.15,2016-02-14 08:51:00,
2016-02-14 03:56:00,-7.9,-18.1,30.14,West,275,5.0,12.0,60,0.00,,,0.00,Wunderground v.1.15,2016-02-14 08:56:00,
2016-02-14 04:01:00,-7.9,-18.1,30.14,WNW,299,1.0,5.0,60,0.00,,,0.00,Wunderground v.1.15,2016-02-14 09:01:00,
2016-02-14 04:06:00,-7.9,-18.1,30.14,WNW,296,1.0,8.0,60,0.00,,,0.00,Wunderground v.1.15,2016-02-14 09:06:00,
2016-02-14 04:11:00,-7.9,-18.1,30.15,WNW,296,4.0,8.0,60,0.00,,,0.00,Wunderground v.1.15,2016-02-14 09:11:00,
2016-02-14 04:16:00,-7.7,-17.9,30.15,WNW,296,4.0,12.0,60,0.00,,,0.00,Wunderground v.1.15,2016-02-14 09:16:00,
2016-02-14 04:21:00,-7.6,-17.8,30.15,West,261,10.0,13.0,60,0.00,,,0.00,Wunderground v.1.15,2016-02-14 09:21:00,
2016-02-14 04:26:00,-7.5,-17.4,30.15,West,277,4.0,14.0,61,0.00,,,0.00,Wunderground v.1.15,2016-02-14 09:26:00,
2016-02-14 04:31:00,-7.3,-16.9,30.16,NW,311,9.0,12.0,62,0.00,,,0.00,Wunderground v.1.15,2016-02-14 09:31:00,
2016-02-14 04:36:00,-7.1,-16.7,30.16,WNW,299,5.0,15.0,62,0.00,,,0.00,Wunderground v.1.15,2016-02-14 09:36:00,
2016-02-14 04:41:00,-7.1,-17.0,30.17,West,267,6.0,7.0,61,0.00,,,0.00,Wunderground v.1.15,2016-02-14 09:41:00,
2016-02-14 04:46:00,-7.1,-17.0,30.17,WSW,257,8.0,11.0,61,0.00,,,0.00,Wunderground v.1.15,2016-02-14 09:46:00,
2016-02-14 04:51:00,-7.0,-17.3,30.17,WNW,295,2.0,5.0,60,0.00,,,0.00,Wunderground v.1.15,2016-02-14 09:51:00,
2016-02-14 04:56:00,-7.1,-17.7,30.17,West,281,5.0,11.0,59,0.00,,,0.00,Wunderground v.1.15,2016-02-14 09:56:00,
2016-02-14 05:01:00,-7.1,-17.7,30.17,NNW,341,7.0,7.0,59,0.00,,,0.00,Wunderground v.1.15,2016-02-14 10:01:00,
2016-02-14 05:06:00,-7.0,-17.6,30.17,NW,305,4.0,13.0,59,0.00,,,0.00,Wunderground v.1.15,2016-02-14 10:06:00,
2016-02-14 05:11:00,-6.9,-17.5,30.18,WNW,298,11.0,13.0,59,0.00,,,0.00,Wunderground v.1.15,2016-02-14 10:11:00,
2016-02-14 05:16:00,-6.6,-16.9,30.18,NW,317,2.0,16.0,60,0.00,,,0.00,Wunderground v.1.15,2016-02-14 10:16:00,
2016-02-14 05:21:00,-6.2,-16.2,30.18,NNW,344,5.0,18.0,61,0.00,,,0.00,Wunderground v.1.15,2016-02-14 10:21:00,
2016-02-14 05:26:00,-5.7,-15.7,30.18,NNW,348,14.0,21.0,61,0.00,,,0.00,Wunderground v.1.15,2016-02-14 10:26:00,
2016-02-14 05:31:00,-5.4,-15.4,30.18,NNW,331,11.0,18.0,61,0.00,,,0.00,Wunderground v.1.15,2016-02-14 10:31:00,
2016-02-14 05:36:00,-5.2,-15.5,30.19,North,355,4.0,24.0,60,0.00,,,0.00,Wunderground v.1.15,2016-02-14 10:36:00,
2016-02-14 05:41:00,-5.2,-14.9,30.19,NNE,21,6.0,10.0,62,0.00,,,0.00,Wunderground v.1.15,2016-02-14 10:41:00,
2016-02-14 05:46:00,-5.2,-14.6,30.20,NW,323,5.0,15.0,63,0.00,,,0.00,Wunderground v.1.15,2016-02-14 10:46:00,
2016-02-14 05:51:00,-5.2,-14.6,30.20,NW,308,5.0,10.0,63,0.00,,,0.00,Wunderground v.1.15,2016-02-14 10:51:00,
2016-02-14 05:56:00,-5.3,-14.7,30.20,West,272,7.0,14.0,63,0.00,,,0.00,Wunderground v.1.15,2016-02-14 10:56:00,
2016-02-14 06:01:00,-5.3,-14.7,30.20,North,351,6.0,14.0,63,0.00,,,0.00,Wunderground v.1.15,2016-02-14 11:01:00,
2016-02-14 06:06:00,-5.3,-14.7,30.21,NNW,338,18.0,26.0,63,0.00,,,0.00,Wunderground v.1.15,2016-02-14 11:06:00,
2016-02-14 06:11:00,-5.2,-14.6,30.21,NW,322,18.0,20.0,63,0.00,,,0.00,Wunderground v.1.15,2016-02-14 11:11:00,
2016-02-14 06:16:00,-5.1,-14.2,30.22,NW,323,9.0,22.0,64,0.00,,,0.00,Wunderground v.1.15,2016-02-14 11:16:00,
2016-02-14 06:26:00,-5.2,-14.3,30.23,NW,321,5.0,17.0,64,0.00,,,0.00,Wunderground v.1.15,2016-02-14 11:26:00,
2016-02-14 06:31:00,-5.2,-14.3,30.23,NW,326,11.0,15.0,64,0.00,,,0.00,Wunderground v.1.15,2016-02-14 11:31:00,
2016-02-14 06:36:00,-5.3,-14.4,30.23,NW,309,5.0,21.0,64,0.00,,,0.00,Wunderground v.1.15,2016-02-14 11:36:00,
2016-02-14 06:41:00,-5.8,-15.2,30.24,NNW,333,7.0,12.0,63,0.00,,,0.00,Wunderground v.1.15,2016-02-14 11:41:00,
2016-02-14 06:46:00,-6.1,-15.4,30.24,NW,315,8.0,14.0,63,0.00,,,0.00,Wunderground v.1.15,2016-02-14 11:46:00,
2016-02-14 06:58:00,-6.2,-15.5,30.25,NW,315,9.0,17.0,63,0.00,,,0.00,Wunderground v.1.15,2016-02-14 11:58:00,
2016-02-14 07:04:00,-5.9,-15.2,30.25,WNW,294,1.0,15.0,63,0.00,,,0.00,Wunderground v.1.15,2016-02-14 12:04:00,
2016-02-14 07:09:00,-5.9,-15.6,30.26,WNW,298,4.0,16.0,62,0.00,,,0.00,Wunderground v.1.15,2016-02-14 12:09:00,
2016-02-14 07:14:00,-5.8,-15.5,30.26,NW,304,8.0,14.0,62,0.00,,,0.00,Wunderground v.1.15,2016-02-14 12:14:00,
2016-02-14 07:19:00,-6.2,-16.2,30.26,WNW,290,5.0,14.0,61,0.00,,,0.00,Wunderground v.1.15,2016-02-14 12:19:00,
2016-02-14 07:27:00,-6.6,-16.6,30.27,NW,306,2.0,6.0,61,0.00,,,0.00,Wunderground v.1.15,2016-02-14 12:27:00,
2016-02-14 07:32:00,-6.8,-16.7,30.27,West,273,2.0,6.0,61,0.00,,,0.00,Wunderground v.1.15,2016-02-14 12:32:00,
2016-02-14 07:41:00,-6.4,-17.0,30.27,NW,312,2.0,15.0,59,0.00,,,0.00,Wunderground v.1.15,2016-02-14 12:41:00,
2016-02-14 07:47:00,-6.2,-16.5,30.28,WNW,298,5.0,15.0,60,0.00,,,0.00,Wunderground v.1.15,2016-02-14 12:47:00,
2016-02-14 07:51:00,-5.8,-16.1,30.28,NNW,333,6.0,14.0,60,0.00,,,0.00,Wunderground v.1.15,2016-02-14 12:51:00,
2016-02-14 07:56:00,-5.5,-15.8,30.28,NW,326,4.0,14.0,60,0.00,,,0.00,Wunderground v.1.15,2016-02-14 12:56:00,
2016-02-14 08:01:00,-5.3,-16.0,30.28,NW,326,7.0,12.0,59,0.00,,,0.00,Wunderground v.1.15,2016-02-14 13:01:00,
2016-02-14 08:06:00,-5.1,-15.8,30.29,NW,321,6.0,18.0,59,0.00,,,0.00,Wunderground v.1.15,2016-02-14 13:06:00,
2016-02-14 08:11:00,-4.9,-15.9,30.29,West,265,5.0,12.0,58,0.00,,,0.00,Wunderground v.1.15,2016-02-14 13:11:00,
2016-02-14 08:16:00,-5.0,-16.4,30.30,WSW,238,4.0,13.0,57,0.00,,,0.00,Wunderground v.1.15,2016-02-14 13:16:00,
2016-02-14 08:21:00,-5.0,-16.4,30.29,West,273,8.0,14.0,57,0.00,,,0.00,Wunderground v.1.15,2016-02-14 13:21:00,
2016-02-14 08:26:00,-4.9,-16.3,30.29,North,360,2.0,14.0,57,0.00,,,0.00,Wunderground v.1.15,2016-02-14 13:26:00,
2016-02-14 08:31:00,-4.6,-16.3,30.29,WNW,296,9.0,17.0,56,0.00,,,0.00,Wunderground v.1.15,2016-02-14 13:31:00,
2016-02-14 08:36:00,-4.3,-16.1,30.30,NNW,330,2.0,17.0,56,0.00,,,0.00,Wunderground v.1.15,2016-02-14 13:36:00,
2016-02-14 08:41:00,-3.9,-15.7,30.29,NW,323,8.0,14.0,56,0.00,,,0.00,Wunderground v.1.15,2016-02-14 13:41:00,
2016-02-14 08:46:00,-3.6,-15.8,30.30,NW,313,14.0,20.0,55,0.00,,,0.00,Wunderground v.1.15,2016-02-14 13:46:00,
2016-02-14 08:51:00,-3.5,-15.7,30.30,WNW,284,8.0,15.0,55,0.00,,,0.00,Wunderground v.1.15,2016-02-14 13:51:00,
2016-02-14 08:56:00,-3.3,-15.5,30.30,NW,322,7.0,15.0,55,0.00,,,0.00,Wunderground v.1.15,2016-02-14 13:56:00,
2016-02-14 09:01:00,-3.0,-15.2,30.30,WNW,296,6.0,12.0,55,0.00,,,0.00,Wunderground v.1.15,2016-02-14 14:01:00,
2016-02-14 09:06:00,-2.6,-14.5,30.30,NW,309,7.0,15.0,56,0.00,,,0.00,Wunderground v.1.15,2016-02-14 14:06:00,
2016-02-14 09:11:00,-2.3,-14.5,30.30,WSW,252,5.0,8.0,55,0.00,,,0.00,Wunderground v.1.15,2016-02-14 14:11:00,
2016-02-14 09:16:00,-2.1,-14.7,30.30,NW,317,4.0,9.0,54,0.00,,,0.00,Wunderground v.1.15,2016-02-14 14:16:00,
2016-02-14 09:21:00,-1.6,-14.2,30.30,WNW,289,12.0,12.0,54,0.00,,,0.00,Wunderground v.1.15,2016-02-14 14:21:00,
2016-02-14 09:26:00,-1.0,-14.4,30.30,WNW,284,7.0,13.0,52,0.00,,,0.00,Wunderground v.1.15,2016-02-14 14:26:00,
2016-02-14 09:31:00,-0.7,-14.1,30.31,West,279,1.0,12.0,52,0.00,,,0.00,Wunderground v.1.15,2016-02-14 14:31:00,
2016-02-14 09:36:00,-0.1,-14.0,30.31,WNW,288,4.0,14.0,51,0.00,,,0.00,Wunderground v.1.15,2016-02-14 14:36:00,
2016-02-14 09:41:00,-0.2,-14.5,30.31,West,276,6.0,8.0,50,0.00,,,0.00,Wunderground v.1.15,2016-02-14 14:41:00,
2016-02-14 09:46:00,0.1,-14.2,30.30,WNW,284,6.0,10.0,50,0.00,,,0.00,Wunderground v.1.15,2016-02-14 14:46:00,
2016-02-14 09:51:00,0.4,-14.7,30.31,West,276,6.0,7.0,48,0.00,,,0.00,Wunderground v.1.15,2016-02-14 14:51:00,
2016-02-14 09:56:00,1.5,-13.7,30.31,NNW,346,8.0,10.0,48,0.00,,,0.00,Wunderground v.1.15,2016-02-14 14:56:00,
2016-02-14 10:01:00,1.6,-14.4,30.30,NNW,342,6.0,11.0,46,0.00,,,0.00,Wunderground v.1.15,2016-02-14 15:01:00,
2016-02-14 10:06:00,1.8,-13.8,30.30,West,270,11.0,14.0,47,0.00,,,0.00,Wunderground v.1.15,2016-02-14 15:06:00,
2016-02-14 10:11:00,2.6,-13.5,30.30,North,10,4.0,8.0,46,0.00,,,0.00,Wunderground v.1.15,2016-02-14 15:11:00,
2016-02-14 10:21:00,2.5,-13.6,30.30,NW,308,12.0,18.0,46,0.00,,,0.00,Wunderground v.1.15,2016-02-14 15:21:00,
2016-02-14 10:31:00,3.4,-11.9,30.30,NW,326,10.0,11.0,48,0.00,,,0.00,Wunderground v.1.15,2016-02-14 15:31:00,
2016-02-14 10:36:00,4.0,-11.8,30.30,NW,308,14.0,15.0,47,0.00,,,0.00,Wunderground v.1.15,2016-02-14 15:36:00,
2016-02-14 10:41:00,4.2,-11.2,30.31,NW,318,7.0,13.0,48,0.00,,,0.00,Wunderground v.1.15,2016-02-14 15:41:00,
2016-02-14 10:46:00,4.4,-12.3,30.31,NW,318,2.0,13.0,45,0.00,,,0.00,Wunderground v.1.15,2016-02-14 15:46:00,
2016-02-14 10:51:00,5.5,-11.3,30.30,NNW,346,5.0,7.0,45,0.00,,,0.00,Wunderground v.1.15,2016-02-14 15:51:00,
2016-02-14 13:03:00,10.5,-9.1,30.28,North,9,5.0,5.0,40,0.00,,,0.00,Wunderground v.1.15,2016-02-14 18:03:00,
2016-02-14 13:08:00,10.7,-8.9,30.28,NNE,20,5.0,9.0,40,0.00,,,0.00,Wunderground v.1.15,2016-02-14 18:08:00,
2016-02-14 13:13:00,11.0,-7.7,30.28,North,5,6.0,8.0,42,0.00,,,0.00,Wunderground v.1.15,2016-02-14 18:13:00,
2016-02-14 13:18:00,11.1,-7.6,30.28,NE,36,3.0,9.0,42,0.00,,,0.00,Wunderground v.1.15,2016-02-14 18:18:00,
2016-02-14 13:23:00,11.0,-8.7,30.28,NNW,337,4.0,8.0,40,0.00,,,0.00,Wunderground v.1.15,2016-02-14 18:23:00,
2016-02-14 13:28:00,11.3,-7.4,30.28,NE,49,2.0,8.0,42,0.00,,,0.00,Wunderground v.1.15,2016-02-14 18:28:00,
2016-02-14 13:33:00,11.4,-7.3,30.28,NW,320,7.0,10.0,42,0.00,,,0.00,Wunderground v.1.15,2016-02-14 18:33:00,
2016-02-14 13:38:00,11.0,-8.7,30.29,NNW,334,6.0,10.0,40,0.00,,,0.00,Wunderground v.1.15,2016-02-14 18:38:00,
2016-02-14 13:43:00,10.5,-9.1,30.29,NNE,28,5.0,10.0,40,0.00,,,0.00,Wunderground v.1.15,2016-02-14 18:43:00,
2016-02-14 13:48:00,11.4,-7.3,30.30,North,5,7.0,10.0,42,0.00,,,0.00,Wunderground v.1.15,2016-02-14 18:48:00,
2016-02-14 13:53:00,11.6,-7.1,30.30,NNE,29,6.0,11.0,42,0.00,,,0.00,Wunderground v.1.15,2016-02-14 18:53:00,
2016-02-14 13:58:00,11.6,-6.6,30.30,NW,313,5.0,11.0,43,0.00,,,0.00,Wunderground v.1.15,2016-02-14 18:58:00,
2016-02-14 14:10:00,11.2,-9.0,30.30,WNW,300,2.0,3.0,39,0.00,,,0.00,Wunderground v.1.15,2016-02-14 19:10:00,